Regional Weather Roundup
Issued by NWS

Home | Current Version | Previous Version | Graphics & Text | Print | Product List | Glossary On
Versions: 1 2 3 4 5 6 7 8 9 10 11 12 13 14 15 16 17 18 19 20 21 22 23 24 25 26 27 28 29 30 31 32 33 34 35 36 37 38 39 40 41 42 43 44 45 46 47 48 49 50
000
ASUS43 KIND 291659
RWRIN

WEATHER ROUNDUP FOR INDIANA
NATIONAL WEATHER SERVICE INDIANAPOLIS IN
100 PM EDT SAT AUG 29 2015

NOTE: "FAIR" INDICATES FEW OR NO CLOUDS BELOW 12,000 FEET WITH NO
SIGNIFICANT WEATHER AND/OR OBSTRUCTIONS TO VISIBILITY.

* - STATION DOES NOT REPORT WEATHER SUCH AS PRECIPITATION OR FOG.

+ - STATION NOT QUALITY CONTROLLED BY THE NATIONAL WEATHER SERVICE.
    USE DATA WITH CAUTION...ESPECIALLY DEWPOINT AND RELATIVE
    HUMIDITY OBSERVATIONS.

INZ001>003-010>013-019-020-291800-
NORTHWEST INDIANA

CITY           SKY/WX    TMP DP  RH WIND       PRES   REMARKS
GARY /AIRPORT/ CLOUDY    73  64  73 SE8       30.05F
KNOX *+        CLOUDY    70  64  83 SE3       30.06F
MONTICELLO +   CLOUDY    76  67  74 S6        30.07S
RENSSELAER +   CLOUDY    77  68  73 S5        30.06F

$$

LMZ046-743>745-291800-
SOUTHERN LAKE MICHIGAN

STATION/POSITION TIME  TEMP    WIND        PRES    WAVE
                       AIR SEA DIR/SP/G            HT
                 (UTC) (F)     (DEG/KT/KT) (MB)    (FT)
BURNS HARBOR     1600   69     170/  8/ 12 1017.9F
MICHIGAN CITY    1600   65     100/  7/  9   N/A
5NW MICH CITY    1600   67 70  130/ 10/ 12   N/A     1

$$

INZ004-005-014>016-021>024-291800-
NORTH CENTRAL INDIANA

CITY           SKY/WX    TMP DP  RH WIND       PRES   REMARKS
ELKHART        LGT RAIN  66  64  94 CALM      30.08F
GOSHEN         LGT RAIN  71  64  78 S5        30.09F
SOUTH BEND     LGT RAIN  66  66 100 SE8       30.08F
WARSAW +       CLOUDY    73  64  73 S3        30.09F

$$

INZ006>009-017-018-025>027-291800-
NORTHEAST INDIANA

CITY           SKY/WX    TMP DP  RH WIND       PRES   REMARKS
ANGOLA *+      MOSUNNY   72  63  73 CALM      30.10F
FORT WAYNE     CLOUDY    78  66  66 CALM      30.10F

$$

INZ028-029-035-036-043>045-051>053-291800-
WEST CENTRAL INDIANA

CITY           SKY/WX    TMP DP  RH WIND       PRES   REMARKS
CRAWFORDSVL +  CLOUDY    74  64  70 S5        30.09S
GREENCASTLE +  CLOUDY    73  63  68 S5        30.10S
LAFAYETTE      CLOUDY    76  65  68 S3        30.07F
TERRE HAUTE    CLOUDY    78  67  68 S5        30.08S

$$

INZ030>032-037>040-046>048-054>057-064-065-291800-
CENTRAL INDIANA

CITY           SKY/WX    TMP DP  RH WIND       PRES   REMARKS
FRANKFORT +    CLOUDY    76  69  77 CALM      30.11S
GREENWOOD *+   CLOUDY    77  64  65 SW6       30.11S
INDIANAPOLIS   CLOUDY    78  66  66 SW7       30.09S
-EAGLE CREEK   CLOUDY    78  66  66 SW7       30.09S
KOKOMO *+      CLOUDY    79  64  61 SW7       30.09F
MT COMFORT *+  CLOUDY    79  61  53 SW6       30.11S
SHELBYVILLE    CLOUDY    80  67  64 S8        30.10F

$$

INZ033-034-041-042-049-050-058-059-291800-
EAST CENTRAL INDIANA

CITY           SKY/WX    TMP DP  RH WIND       PRES   REMARKS
MUNCIE         CLOUDY    78  65  63 SW7       30.11S

$$

INZ060-061-067>069-081>083-085>088-291800-
SOUTHWEST INDIANA

CITY           SKY/WX    TMP DP  RH WIND       PRES   REMARKS
EVANSVILLE     PTSUNNY   85  70  60 S10       30.09F
HUNTINGBURG *+ PTSUNNY   82  70  65 S8        30.11S

$$

INZ062-063-066-070>080-084-089>092-291800-
SOUTH CENTRAL AND SOUTHEAST INDIANA

CITY           SKY/WX    TMP DP  RH WIND       PRES   REMARKS
BLOOMINGTON    CLOUDY    78  69  73 S5        30.11S
MADISON *+     PTSUNNY   81  68  65 SW8       30.15S
SEYMOUR +      CLOUDY    82  70  65 S6        30.11F

$$




USA.gov is the U.S. government's official web portal to all federal, state and local government web resources and services.